Dewpoint
50 50 49 49 49 49 48 48 49 48 48 49 49 49 49 49 49 49 49 50 50 50 50 51 51 51 51 51 51 51 52 50 48 45 43 37 42 48 57 56 56 59 56 41 35 32 34 36 35 38 38 37 37 35 36 37 29 26 27 23 20 19 16 18 14 10 9 11 10 11 13 11 16 40 52 56 57 59 60 61 62 64 64 65 64 65 66 65
49 50 50 49 49 49 50 49 48 48 49 49 49 49 49 49 49 49 50 50 50 50 50 51 50 50 50 50 51 51 51 49 46 43 41 41 50 52 57 59 60 60 54 39 32 29 32 31 34 37 36 34 36 32 34 34 31 24 23 23 21 18 17 20 18 16 12 11 11 13 13 11 7 25 31 53 54 56 56 57 61 62 63 64 65 65 65 65
49 49 49 49 49 48 47 49 49 48 48 49 50 49 48 49 49 49 49 50 50 50 50 50 50 50 50 50 51 52 50 44 42 32 21 52 51 51 54 56 60 60 40 39 34 27 25 30 33 36 35 34 32 34 32 33 33 29 21 18 19 20 18 16 15 14 12 13 13 13 14 7 6 10 17 46 53 54 53 53 58 60 62 63 64 65 64 64
50 50 49 48 48 48 48 48 48 49 48 48 49 49 49 48 49 49 49 49 50 50 50 50 50 50 50 50 51 50 43 42 15 9 15 53 54 53 53 57 62 58 38 37 36 26 26 33 35 35 34 33 33 28 29 27 30 24 24 19 18 18 17 18 16 15 15 16 14 12 13 9 7 9 49 52 47 48 50 55 56 59 63 63 64 64 64 64
50 49 49 48 48 48 49 48 48 49 49 48 48 48 48 48 49 49 49 49 50 50 50 50 50 50 50 50 52 48 42 0 -11 6 13 59 61 58 55 58 61 50 36 36 35 33 31 33 33 33 32 29 30 25 26 26 24 21 26 22 18 15 15 16 15 15 15 15 13 12 10 9 10 42 53 48 44 41 46 49 57 63 64 64 64 64 64 64
49 49 49 49 49 49 49 49 47 48 49 49 48 48 48 48 48 49 49 49 49 49 49 50 49 49 50 50 50 48 21 -10 2 14 63 64 64 62 57 59 60 43 35 34 33 32 30 31 31 30 30 30 30 28 29 26 20 17 20 15 16 16 16 17 15 14 13 12 11 10 10 9 10 23 38 41 34 34 40 45 61 64 64 65 65 64 63 63
50 49 48 47 47 48 47 47 47 47 49 49 49 48 48 48 48 48 49 49 49 49 49 49 49 50 49 51 46 41 8 -10 13 11 60 62 63 61 58 60 59 36 33 31 31 30 30 30 26 27 29 30 30 29 30 21 19 21 20 17 16 14 14 15 14 14 13 13 12 11 12 8 8 7 17 26 20 26 61 60 64 65 65 65 64 64 63 63
49 49 48 48 46 46 47 48 48 47 47 49 48 48 49 48 48 49 49 48 48 48 49 49 49 49 50 45 42 37 33 23 15 24 53 63 59 58 60 54 42 32 30 29 31 29 30 29 21 29 28 27 29 28 27 26 20 21 21 19 17 16 14 14 13 13 13 12 13 12 11 10 9 8 9 10 21 53 63 64 64 64 64 64 64 64 64 63
48 48 48 48 48 48 46 46 47 48 49 48 48 48 48 48 48 49 48 48 48 48 48 49 48 48 51 45 39 18 21 26 26 23 58 57 57 53 48 42 35 31 31 28 28 29 29 30 28 27 23 28 27 28 26 25 23 17 17 17 17 16 16 14 12 11 10 11 12 11 10 10 9 10 7 7 29 60 63 64 63 64 64 64 64 64 64 63
48 48 47 47 48 47 47 48 47 46 47 48 48 48 48 48 48 49 48 48 48 48 48 48 48 47 48 44 33 15 13 15 36 57 55 56 53 48 44 41 35 34 32 28 27 29 25 29 25 30 29 28 25 24 22 22 21 18 18 19 18 17 13 12 11 10 14 10 11 9 9 9 9 8 4 15 48 62 63 63 63 63 64 64 64 64 63 62
48 48 48 48 47 48 48 47 47 47 48 49 48 47 48 48 48 48 48 48 48 48 48 48 48 47 46 45 22 7 3 51 52 54 54 53 50 46 43 39 36 35 34 29 25 28 29 32 36 32 30 30 26 26 21 19 18 14 15 18 9 9 8 8 8 7 8 6 9 9 8 10 10 7 5 13 57 61 62 62 63 63 64 64 64 64 63 62
48 49 49 48 48 47 48 49 48 47 48 48 47 47 47 47 48 48 48 48 48 48 48 48 48 47 47 45 38 12 18 49 49 51 49 49 48 45 42 40 36 36 32 29 27 27 35 33 37 30 27 25 22 16 14 23 12 12 10 9 9 7 5 7 5 7 7 6 10 9 8 7 8 6 7 9 56 60 61 62 63 63 64 64 64 64 63 62
48 48 49 49 49 48 47 46 47 47 47 48 48 46 47 47 48 48 48 48 48 47 48 48 47 48 45 36 35 35 31 30 24 33 49 45 46 46 41 41 37 34 32 31 29 26 26 38 37 35 34 32 27 18 12 14 13 12 11 9 6 6 2 4 10 12 8 9 9 8 7 7 7 8 8 13 58 59 60 61 62 63 64 64 64 64 63 62
48 48 48 48 49 48 48 47 46 48 47 47 47 47 47 47 47 47 48 47 48 48 47 47 46 48 45 33 28 30 30 30 26 27 26 48 44 44 43 40 40 38 35 30 27 26 25 38 38 37 26 25 22 19 14 11 12 9 10 8 9 5 6 6 11 12 7 12 9 9 11 7 8 7 9 11 58 58 59 60 61 62 63 64 64 64 63 61
48 48 48 48 47 48 47 47 47 48 48 48 47 46 47 47 47 48 48 48 47 48 49 50 49 45 40 37 37 38 49 41 31 26 32 46 42 35 41 38 38 38 34 32 34 32 27 35 29 28 29 26 25 21 16 12 12 16 7 8 15 6 8 7 15 12 7 8 11 8 15 8 7 6 7 16 55 56 58 59 59 61 62 63 63 63 62 61
47 48 49 48 47 48 48 47 47 47 47 47 46 46 47 47 47 48 48 48 48 48 47 44 45 46 40 28 19 51 43 37 35 32 32 42 43 32 37 36 34 34 32 31 30 33 32 29 27 25 24 15 13 12 13 12 11 16 10 18 13 8 6 4 7 10 11 10 7 8 6 6 6 9 16 43 56 55 56 58 58 59 61 62 63 63 62 61
46 48 48 48 48 48 47 47 46 47 46 46 47 47 47 47 48 48 48 48 48 49 49 42 44 46 33 23 26 22 21 34 38 37 31 39 41 33 32 28 29 29 30 27 30 29 28 27 28 23 21 16 13 12 12 13 15 12 15 11 19 6 9 4 7 7 8 6 4 6 6 9 9 10 22 49 55 55 54 56 56 57 59 61 62 62 61 61
47 48 48 48 47 46 47 47 47 47 47 47 47 47 45 48 49 48 49 49 49 48 48 48 45 43 35 35 22 18 25 28 35 37 31 35 37 29 27 26 28 25 25 24 28 23 26 27 21 23 21 19 16 16 14 13 15 12 14 13 11 12 12 7 8 8 9 8 6 9 9 9 8 9 10 24 39 53 53 52 55 55 57 60 61 61 60 61
48 48 47 47 46 47 47 47 45 46 46 48 47 46 47 47 48 46 46 47 41 27 21 36 40 9 5 20 20 19 20 27 29 36 33 33 35 30 33 29 25 23 23 23 24 21 23 22 25 19 16 14 13 12 15 16 14 12 14 15 11 10 10 8 9 10 10 11 8 7 7 8 10 20 30 37 44 47 50 52 53 54 56 58 60 61 60 60
47 48 47 47 47 47 46 45 45 46 46 46 44 43 38 44 44 38 44 45 42 24 15 26 38 33 27 24 26 24 28 31 25 30 32 38 33 30 30 28 27 26 23 21 24 24 23 20 19 19 19 17 19 14 14 14 13 13 12 11 10 10 10 11 11 11 11 10 12 10 12 14 25 32 38 40 43 46 45 49 50 52 53 55 58 59 59 60
47 47 47 47 44 44 45 45 46 46 46 45 43 39 26 39 34 35 41 41 41 40 37 34 37 32 22 28 29 29 24 24 29 22 31 38 31 29 28 27 26 28 26 25 24 32 24 21 19 20 19 18 19 20 22 17 17 9 11 9 10 10 10 10 10 13 16 18 16 12 20 26 31 37 43 46 48 49 48 48 49 51 52 54 57 58 59 58
46 45 45 46 45 44 46 47 46 46 47 45 41 38 37 36 34 33 31 28 30 39 36 32 33 34 33 32 31 30 30 27 28 28 21 30 30 26 28 25 25 25 26 25 26 24 22 22 23 21 21 26 27 27 22 20 20 17 10 15 11 11 12 13 16 19 18 15 18 16 28 31 31 34 43 46 48 49 50 50 51 50 51 53 54 54 54 56
46 46 46 45 44 44 44 46 46 46 43 41 40 38 38 37 36 36 37 32 31 31 34 34 31 28 28 29 28 30 29 28 27 23 24 30 29 27 26 24 25 24 24 24 23 23 22 22 23 23 23 23 25 26 24 23 26 21 16 12 10 14 10 8 19 20 20 14 16 28 35 35 40 41 44 45 49 49 51 52 52 53 52 51 53 54 54 55
45 45 45 44 44 45 46 46 46 44 43 42 40 39 40 39 40 41 35 30 28 29 30 33 32 30 28 27 28 29 28 29 29 27 25 29 28 28 25 24 24 23 22 22 22 22 22 21 23 21 21 18 22 25 20 18 13 24 19 15 13 12 11 9 15 19 27 23 23 19 22 26 38 44 45 46 47 50 51 52 53 54 54 52 52 52 53 54
45 45 45 45 44 45 45 46 43 43 41 39 39 42 42 42 42 41 35 32 32 33 33 32 33 32 30 31 33 29 30 31 30 26 25 29 26 25 25 25 24 22 22 23 21 20 20 22 22 20 19 19 20 19 22 18 13 15 24 15 13 13 12 15 22 18 20 15 21 10 10 24 32 42 44 46 47 49 51 51 52 53 54 55 54 53 53 53
45 45 45 45 45 44 45 43 42 42 40 37 37 40 41 41 40 42 34 30 24 28 27 24 32 26 31 29 30 30 31 28 29 27 25 29 30 27 23 22 24 21 22 22 21 24 21 24 21 20 19 18 17 18 18 15 16 12 13 17 13 11 15 20 20 19 13 10 18 22 11 16 19 41 43 45 46 48 50 51 52 53 53 54 55 55 55 56
45 44 44 44 44 45 41 38 42 41 37 35 39 42 42 40 41 41 29 22 17 26 21 22 21 18 26 28 30 28 22 23 25 23 23 32 26 23 23 19 23 23 24 28 24 20 24 21 20 19 19 17 17 17 18 15 13 9 14 16 13 19 20 21 17 16 15 24 27 20 19 12 21 36 42 45 44 47 48 50 51 52 54 54 55 56 56 57
44 44 44 43 44 44 42 43 41 39 37 36 42 42 41 40 42 43 33 17 8 20 21 23 21 26 24 31 30 25 24 23 22 19 19 25 21 24 20 19 22 20 23 22 17 24 28 23 23 20 21 16 15 16 17 14 10 12 20 17 16 17 21 19 16 19 19 13 9 18 22 15 23 33 43 45 44 46 47 49 50 53 54 54 55 56 56 57
43 43 43 43 45 45 43 42 41 39 41 42 41 41 40 42 42 33 27 20 28 16 23 21 24 22 25 30 27 26 18 22 20 18 20 22 21 22 20 19 22 20 22 21 19 24 21 23 22 19 18 17 16 15 16 13 11 11 21 20 19 21 21 16 18 15 18 12 8 13 22 15 23 38 43 46 45 45 47 49 51 53 54 55 55 55 56 56
42 42 43 44 44 43 43 43 42 42 42 41 42 41 42 43 35 26 18 13 25 20 18 18 18 16 25 27 24 24 21 16 18 18 19 18 18 22 18 18 19 19 19 20 23 23 23 33 28 19 19 19 18 15 16 13 11 15 15 13 14 18 22 26 21 20 17 5 11 16 22 19 25 39 43 44 44 46 47 49 50 52 53 54 55 55 56 56
43 43 44 45 42 42 41 39 40 41 41 42 41 42 42 36 29 22 16 20 31 27 18 17 14 23 24 23 20 20 20 15 14 15 14 16 17 18 16 16 19 18 22 19 21 22 19 19 20 18 27 19 18 14 15 14 15 16 17 15 13 15 18 17 19 18 10 9 16 23 28 21 13 34 43 47 48 48 49 49 50 51 52 53 54 55 56 56
45 45 46 44 45 44 41 39 42 43 42 42 42 42 34 26 27 24 20 30 23 27 24 11 16 21 23 21 18 18 17 15 19 14 12 13 16 16 17 18 18 15 16 16 18 21 19 17 16 16 38 16 16 14 14 14 14 15 17 14 14 11 11 5 13 4 5 10 17 26 25 30 35 39 45 47 48 49 50 50 51 52 52 52 53 53 54 54
46 46 46 45 45 43 43 43 43 43 42 42 42 37 28 22 19 23 24 27 28 34 26 21 14 16 20 15 14 16 14 13 16 15 12 14 14 15 19 18 16 20 15 22 17 17 18 20 18 16 14 25 15 14 14 12 13 14 14 15 13 6 3 1 7 9 12 13 17 23 26 33 40 43 47 48 49 50 51 52 52 52 51 51 51 51 52 52
46 45 44 44 43 43 43 44 43 43 42 42 41 31 30 22 24 38 27 28 32 39 36 26 15 14 14 13 12 13 12 14 14 14 13 14 13 17 16 18 16 17 26 25 14 15 11 13 14 13 14 16 15 14 14 16 14 12 15 13 15 12 7 0 10 3 7 13 19 31 30 31 35 38 48 47 51 51 51 51 51 51 51 51 50 50 50 51
46 46 45 44 45 45 45 44 43 44 42 41 34 28 21 22 27 27 30 25 38 36 32 19 15 13 14 12 15 13 15 17 16 15 18 13 15 17 17 18 19 21 22 16 22 18 13 17 19 16 17 15 14 16 16 13 12 16 14 13 12 13 19 13 15 15 15 18 19 30 27 33 37 46 48 49 51 50 50 49 49 49 49 50 49 49 50 50
46 43 44 43 43 43 44 45 44 43 41 38 27 25 21 27 23 33 31 33 39 31 24 26 17 12 15 15 19 12 20 16 14 17 17 13 19 16 18 18 17 18 19 20 23 15 15 17 19 21 17 15 14 18 17 14 13 19 11 13 16 18 17 14 13 20 18 23 25 27 38 42 43 46 46 48 50 49 49 49 49 48 48 48 48 48 48 49
42 42 42 43 42 43 44 45 44 42 41 35 21 18 26 26 35 33 36 33 36 33 27 21 17 14 14 14 16 11 19 16 14 13 15 16 20 19 19 20 19 18 16 23 21 23 17 19 22 15 13 14 15 17 16 16 20 14 13 13 19 20 20 16 9 10 6 14 21 31 34 37 36 32 44 47 48 48 49 48 48 47 47 47 47 47 47 47
43 43 44 43 44 44 45 44 43 42 41 34 22 30 35 29 35 33 34 34 31 25 19 20 18 16 12 18 15 11 19 11 20 13 14 15 18 22 19 19 19 17 17 20 19 22 19 14 14 16 16 15 19 14 14 15 15 12 14 16 13 10 8 15 14 3 3 15 26 33 35 35 32 33 41 44 46 47 47 47 46 45 45 45 45 45 45 46
44 42 40 44 45 45 44 43 42 42 36 29 28 22 30 34 35 31 29 29 27 22 18 15 15 18 18 16 20 15 12 13 18 14 7 11 12 25 18 13 18 16 17 16 17 21 27 15 17 19 15 18 19 15 15 17 12 14 14 12 23 19 18 10 12 14 11 6 25 30 34 30 35 37 44 45 47 47 47 46 45 44 44 44 44 44 45 45
41 40 41 44 44 44 44 43 42 38 32 24 28 26 32 24 23 25 26 23 32 16 16 19 16 19 17 19 15 15 15 16 11 16 16 23 24 28 33 34 27 17 17 17 16 25 13 24 11 18 19 16 14 19 16 15 13 13 15 13 13 20 23 16 19 11 13 17 22 27 27 31 34 38 45 47 48 47 47 45 44 43 44 43 43 43 43 44
41 39 42 44 44 44 43 42 36 34 32 33 33 31 25 22 23 25 25 23 19 17 12 14 19 16 16 16 13 15 18 20 27 28 30 31 26 21 34 38 36 23 15 16 16 24 19 16 15 23 18 22 18 27 26 16 13 13 14 15 14 15 12 11 9 22 20 22 23 25 23 28 36 47 47 48 48 48 47 44 43 42 42 42 42 42 42 42
39 37 41 44 44 43 41 34 33 36 32 30 25 27 25 31 24 25 21 18 18 12 11 20 22 21 20 17 19 21 22 28 32 33 34 29 35 32 34 41 40 20 16 16 16 24 21 23 20 12 21 30 32 34 36 24 34 30 29 29 20 20 17 17 10 14 23 26 27 25 26 29 44 47 47 46 46 46 46 44 42 42 41 41 41 42 42 41
40 39 48 43 43 43 32 25 33 32 30 32 30 20 25 26 24 22 18 18 19 16 20 23 21 23 23 16 21 24 29 32 33 33 35 36 36 37 38 40 40 37 36 34 24 28 46 19 19 22 22 24 26 24 32 36 33 32 35 36 31 16 21 19 19 21 22 24 24 23 26 32 44 46 44 44 43 42 42 43 42 41 41 41 41 41 41 41
40 41 42 43 44 43 28 21 22 22 27 29 30 19 20 18 22 15 16 19 23 22 23 23 22 21 25 26 28 27 29 28 33 33 33 36 35 38 39 40 43 40 26 29 20 32 12 15 19 19 19 22 23 22 25 29 37 34 32 34 36 34 26 25 26 26 24 26 24 21 19 32 42 44 43 43 41 41 41 41 41 40 40 40 40 40 40 40
39 41 44 42 43 42 33 31 31 29 34 34 38 37 37 37 26 22 22 25 22 21 26 22 21 23 26 27 31 32 33 31 32 34 35 37 36 39 37 40 45 44 48 44 48 32 26 23 23 18 15 13 12 13 18 23 31 32 34 35 35 27 25 22 16 21 18 22 25 24 29 37 42 42 42 42 41 40 40 41 40 40 40 39 40 40 40 39
37 31 40 40 40 40 39 40 39 36 32 34 32 35 37 34 32 27 27 26 21 23 24 24 21 22 25 31 31 31 32 34 32 32 35 34 36 36 38 39 44 47 47 49 44 37 31 31 27 23 22 21 21 22 30 33 32 30 33 36 36 35 31 26 24 19 16 23 24 30 34 36 38 40 40 40 40 40 39 39 39 39 39 39 39 39 39 39
41 36 35 33 39 39 37 38 38 37 32 33 29 34 32 32 32 28 22 24 22 24 25 27 27 23 21 29 29 30 30 32 33 34 35 36 37 37 39 39 39 47 46 43 44 33 31 31 33 35 34 35 35 34 36 37 34 34 34 35 37 35 33 27 22 20 26 27 22 32 38 37 37 38 39 38 38 38 38 38 38 38 39 38 38 39 39 39
34 37 40 39 34 32 33 34 38 37 37 37 34 33 31 29 29 25 28 23 26 27 23 23 28 28 21 26 29 27 29 30 32 30 34 35 34 35 35 36 37 43 44 40 40 34 30 28 33 35 34 34 35 35 36 36 36 36 36 37 36 37 33 29 30 33 26 23 21 35 38 36 37 38 38 38 38 37 36 37 38 38 38 38 38 38 38 38
42 40 40 43 33 34 35 34 37 36 35 36 34 35 31 29 26 28 25 27 24 28 28 23 27 27 29 30 29 27 28 27 27 30 32 33 33 30 30 33 35 39 40 38 38 35 34 31 32 33 32 33 34 34 35 35 35 35 35 36 36 37 36 36 35 35 32 33 34 38 36 34 36 37 38 38 38 38 37 37 37 37 37 37 37 37 37 37
38 37 34 41 41 39 36 36 36 35 32 38 33 34 33 29 26 28 27 26 23 27 28 28 27 26 26 27 30 29 29 31 30 27 32 34 31 32 31 30 30 34 39 38 38 37 34 31 35 31 30 32 34 34 34 34 35 34 35 35 35 35 36 36 36 36 37 36 36 35 33 32 36 38 37 38 38 38 37 36 36 36 36 37 36 37 37 36
44 45 45 40 35 35 37 35 34 33 29 31 34 34 29 29 27 29 27 27 29 28 30 27 27 26 26 26 26 28 31 33 33 34 35 34 30 34 30 30 34 33 36 36 37 36 35 31 31 28 31 30 33 32 33 33 34 33 33 34 35 34 32 34 33 36 36 34 35 34 32 31 35 37 36 36 36 36 35 35 35 36 36 36 36 36 36 37
44 48 47 43 34 38 35 34 31 31 27 31 35 31 28 27 30 28 25 24 28 30 32 29 30 27 27 26 26 27 29 31 29 33 36 37 38 38 38 37 35 34 33 35 37 33 35 35 30 28 31 29 33 32 31 28 27 27 30 33 35 35 36 36 35 36 36 37 34 33 33 34 35 36 34 35 35 34 34 35 35 36 36 36 35 36 36 37